SCP
0 0 0 0 0 0 0 0 0 0 0 0 0 0 0 0 0 0 0 0 0 0 0 1 1 1 1 1 1 1 1 0 0 0 0 0 0 0 0 0 0 0 0 0 0 0 0 0 0
0 0 0 0 0 0 0 0 0 0 0 0 0 0 0 0 0 0 0 0 0 0 0 1 1 1 1 1 1 1 1 1 0 0 0 0 0 0 0 0 0 0 0 0 0 0 0 0 0
0 0 0 0 0 0 0 0 0 0 0 0 0 0 0 0 0 0 0 0 0 0 0 1 1 1 1 1 1 1 1 1 1 0 0 0 0 0 0 0 0 0 0 0 0 0 0 0 0
0 0 0 0 0 0 0 0 0 0 0 0 0 0 0 1 0 0 0 0 0 0 0 1 1 1 1 1 1 1 1 1 1 1 0 0 0 0 0 0 0 0 0 0 0 0 0 0 0
0 0 0 0 0 0 0 0 0 0 0 0 0 0 0 1 1 0 0 0 0 0 0 1 1 1 1 1 1 1 1 1 1 1 1 1 0 0 0 0 0 0 0 0 0 0 0 0 0
0 0 0 0 0 0 0 0 0 0 0 0 0 0 0 0 0 0 0 0 0 0 0 1 1 1 1 1 1 1 1 1 1 1 1 1 1 1 0 0 0 0 0 0 0 0 0 0 0
0 0 0 0 0 0 0 0 0 0 0 0 0 0 0 0 0 0 0 1 0 0 0 1 1 1 1 1 1 1 1 1 1 1 1 1 1 1 0 0 0 0 0 0 0 0 0 0 0
0 0 0 0 0 0 0 0 0 0 0 0 0 0 0 0 0 0 0 1 1 0 0 1 1 1 1 1 1 1 1 1 1 1 1 1 1 1 0 0 0 0 0 0 0 0 0 0 0
0 0 0 0 0 0 0 0 0 0 0 0 0 0 0 0 0 0 0 1 1 0 0 1 1 1 1 1 1 1 0 0 0 1 1 1 1 0 0 0 0 0 0 0 0 0 0 0 0
0 0 0 0 0 0 0 0 0 0 0 0 0 0 0 0 0 0 0 0 0 0 0 1 1 1 1 1 1 1 0 0 0 0 0 0 0 0 0 0 0 0 0 0 0 0 0 0 0
0 0 0 0 0 0 0 0 0 0 0 0 0 1 1 1 0 0 0 0 0 0 0 1 1 2 2 1 1 1 0 0 0 0 0 0 0 0 0 0 0 0 0 0 0 0 0 0 0
0 0 0 0 0 0 0 0 0 0 0 0 0 0 1 1 1 0 0 0 0 0 0 1 1 2 2 1 1 1 1 0 0 0 0 0 0 0 0 0 0 0 0 0 0 0 0 0 0
0 0 0 0 0 0 0 0 0 0 0 0 0 0 1 1 1 1 0 0 0 0 0 0 1 1 1 1 1 1 1 0 0 0 0 0 0 0 0 0 0 0 0 0 0 0 0 0 0
0 0 0 0 0 0 0 0 0 0 0 0 0 0 1 1 1 1 0 0 0 0 0 0 1 1 1 1 1 1 1 0 0 0 0 0 0 0 0 0 0 0 0 0 0 0 0 0 0
0 0 0 0 0 0 0 0 0 0 0 0 0 0 0 1 1 1 0 0 0 0 0 0 0 1 1 1 1 1 1 0 0 0 0 0 0 0 0 0 0 0 0 0 0 0 0 0 0
0 0 0 0 0 0 0 0 0 0 0 0 0 0 0 0 1 1 0 0 0 0 0 0 1 1 1 1 1 1 1 0 0 0 0 0 0 0 0 0 0 0 0 0 0 0 0 0 0
0 0 0 0 0 0 0 0 0 0 0 0 0 0 0 0 0 0 0 0 0 0 0 0 0 1 2 1 1 1 0 0 0 0 0 0 0 0 0 0 0 0 0 0 0 0 0 0 0
0 0 0 0 0 0 0 0 0 0 0 0 0 0 0 0 0 0 0 0 0 0 0 0 0 1 2 2 1 1 1 0 0 0 0 0 0 0 0 0 0 0 0 0 0 0 0 0 0
0 0 0 0 0 0 0 0 0 0 0 0 0 0 0 0 0 0 0 0 0 0 0 0 1 1 2 2 2 1 1 1 1 1 0 0 0 0 0 0 0 0 0 0 0 0 0 0 0
0 0 0 0 0 0 0 0 0 0 0 0 0 0 0 0 0 0 0 1 1 0 0 0 1 1 3 3 2 2 1 1 1 1 0 0 0 0 0 0 0 0 0 0 0 0 0 0 0
0 0 0 0 0 0 0 0 0 0 0 0 0 0 0 0 0 0 0 1 1 1 1 1 1 1 2 3 3 3 2 1 1 1 1 0 0 0 0 0 0 0 0 0 0 0 0 0 0
0 0 0 0 0 0 0 0 0 0 0 0 0 0 0 0 0 0 0 1 1 1 1 1 1 1 2 3 3 3 2 2 1 1 1 1 1 1 0 0 0 0 0 0 0 0 0 0 0
0 0 0 0 0 0 0 0 0 0 0 0 0 0 0 0 0 0 0 1 1 1 1 1 1 1 1 2 3 3 2 2 1 1 1 1 1 0 0 0 0 0 0 0 0 0 0 0 0
0 0 0 0 0 0 0 0 0 0 0 0 0 0 0 0 0 0 0 1 1 1 1 1 1 1 1 1 2 2 2 2 1 1 1 0 0 0 0 0 0 0 0 0 0 0 0 0 0
0 0 0 0 0 0 0 0 0 0 0 0 0 0 0 0 0 0 0 1 1 0 1 1 2 2 2 1 1 2 2 2 1 1 1 0 0 0 0 0 0 0 0 0 0 0 0 0 0
0 0 0 0 0 0 0 0 0 0 0 0 0 0 0 0 0 0 0 0 0 0 0 1 2 2 2 2 2 2 2 2 2 1 1 1 0 0 0 0 0 0 0 0 0 0 0 0 0
0 0 0 0 0 0 0 0 0 0 0 0 0 0 0 0 0 0 0 0 0 0 0 1 1 2 3 3 2 2 1 1 1 1 1 1 0 0 0 0 0 0 0 0 0 0 0 0 0
0 0 0 0 0 0 0 0 0 0 0 0 0 0 0 0 0 0 0 0 0 0 0 0 0 1 2 2 2 1 1 1 1 1 1 1 1 0 0 0 0 0 0 0 1 0 0 0 0
0 0 0 0 0 0 0 0 0 0 0 0 0 0 0 0 0 0 0 0 0 0 0 0 0 0 1 1 1 1 1 0 0 1 1 1 1 1 0 0 0 0 0 0 1 1 0 0 0
0 0 0 0 0 0 0 0 0 0 0 0 0 0 0 0 0 0 0 0 0 0 0 0 0 0 0 0 1 1 0 0 0 0 1 1 1 1 0 0 0 0 0 0 1 1 0 0 0
Wind_Speed
11 6 1 4 5 4 2 4 2 1 1 0 3 8 7 4 2 3 2 8 11 12 11 12 13 14 14 14 13 13 12 12 12 12 12 12 12 12 12 11 11 11 11 11 11 11 11 10 9
6 2 3 5 5 1 4 4 1 1 2 1 4 6 6 3 2 5 4 8 13 12 11 11 12 14 14 14 13 13 12 12 12 12 12 11 11 11 11 11 10 10 10 10 10 10 9 9 8
5 0 4 4 3 4 3 2 1 1 1 1 3 5 5 3 3 5 6 12 12 10 9 10 13 14 14 14 13 13 12 12 12 12 12 11 10 10 10 10 10 9 9 9 9 9 8 7 6
3 4 4 3 3 4 4 3 1 1 3 3 4 5 3 1 4 5 11 12 12 9 8 10 12 14 14 14 13 13 13 12 12 11 11 11 10 10 10 10 9 8 8 8 8 8 7 6 5
3 4 3 1 4 4 3 3 2 1 0 1 4 4 1 3 5 11 12 12 12 9 8 10 12 12 13 13 12 12 12 12 11 11 11 10 10 10 9 9 8 8 7 7 7 6 6 5 4
3 4 3 3 4 4 4 3 1 1 0 1 4 4 1 1 6 8 10 10 10 10 8 8 11 11 11 11 10 10 11 11 11 11 10 10 10 9 9 8 8 8 7 6 6 6 5 4 3
3 3 3 3 3 3 4 2 1 2 1 1 4 5 1 1 4 6 7 8 9 9 8 6 7 8 9 9 9 9 8 9 9 10 9 9 8 8 8 7 7 7 7 6 6 5 5 4 3
3 3 2 2 3 4 4 3 1 1 1 0 4 7 5 4 4 6 7 7 7 7 7 7 6 6 6 6 8 8 8 8 8 8 8 8 8 7 7 6 6 7 7 6 6 5 5 4 3
3 3 3 3 3 3 3 4 5 2 2 3 3 2 4 7 7 8 6 5 5 6 6 6 6 6 6 5 7 7 7 7 8 7 8 7 4 4 4 5 6 6 6 6 6 6 5 4 4
3 4 5 3 2 1 3 2 4 3 3 3 4 4 5 8 8 8 7 7 7 7 7 6 6 6 6 5 4 4 4 4 4 4 5 4 3 3 4 6 7 7 6 6 7 6 5 4 2
3 5 3 2 1 1 3 4 3 1 1 1 1 2 4 6 6 6 7 7 7 7 6 6 6 6 6 4 4 3 3 3 4 5 5 4 3 3 3 2 3 4 5 3 4 4 2 3 2
1 1 1 1 2 1 2 3 3 1 3 2 2 6 6 5 6 6 6 5 4 5 5 5 6 6 6 4 4 4 3 3 4 5 5 4 3 3 3 2 3 3 2 3 3 2 3 3 4
1 1 2 2 3 2 2 3 2 3 3 2 3 5 5 6 5 3 3 4 3 4 5 6 6 6 6 5 4 4 4 4 4 4 5 5 4 4 4 3 3 3 3 3 3 3 3 4 4
2 2 3 3 3 2 1 4 1 3 2 3 3 3 3 4 3 2 2 3 4 5 5 5 6 6 6 5 5 4 4 4 4 4 5 6 5 5 4 4 4 4 4 3 4 4 4 4 3
1 1 3 2 2 1 1 4 3 3 3 3 1 1 2 1 1 2 4 4 5 5 5 4 6 5 6 6 6 4 4 4 4 4 5 6 5 5 5 4 4 4 4 4 3 4 3 3 3
1 1 2 3 1 0 2 6 4 3 3 2 2 1 1 0 0 1 1 1 2 2 3 4 4 5 5 5 5 3 3 3 3 3 3 5 5 5 5 4 4 4 3 3 3 3 3 3 3
1 2 3 3 1 1 2 4 4 4 2 2 2 2 1 2 4 3 3 1 0 1 2 2 2 3 4 4 4 4 3 3 3 3 3 4 5 5 4 4 3 4 3 3 4 3 3 3 4
3 2 2 3 2 1 1 3 4 4 3 2 2 3 3 3 3 3 4 4 4 3 2 1 1 1 1 2 2 2 2 2 2 2 3 3 3 4 4 3 3 3 3 3 3 4 3 3 3
2 2 3 3 2 0 2 3 3 3 4 4 4 4 3 3 3 5 5 5 6 7 6 4 3 1 1 0 1 2 2 2 2 1 1 2 2 2 3 2 3 3 3 4 3 3 3 3 2
2 2 2 3 2 0 1 3 2 2 2 2 3 4 3 4 5 7 7 7 6 6 6 5 5 3 2 1 1 1 1 1 1 1 0 1 1 1 2 2 2 3 3 4 4 3 2 2 2
4 4 3 3 4 1 1 3 2 2 3 4 4 3 4 4 4 5 6 6 6 6 5 5 5 4 3 3 2 2 2 2 1 1 1 1 1 1 1 2 2 2 2 3 4 4 4 4 3
6 4 3 2 0 2 1 2 3 1 2 3 3 3 4 4 4 5 6 6 6 5 4 4 5 5 4 4 3 3 2 1 1 1 1 2 1 1 1 1 1 1 1 2 3 3 4 4 3
4 3 3 3 2 2 2 2 4 1 2 3 3 3 3 4 4 5 5 4 5 5 5 4 5 5 5 4 4 3 2 1 2 3 3 2 2 2 1 1 1 1 2 2 3 3 3 3 4
2 1 2 1 1 4 4 3 5 2 2 1 2 3 3 4 5 5 5 5 6 6 5 6 6 6 6 5 4 3 3 3 3 3 3 2 2 3 4 3 2 2 2 2 3 3 3 3 4
2 4 2 2 1 5 2 3 4 2 1 2 1 2 3 4 4 5 6 6 7 7 6 6 6 7 6 5 5 4 3 3 3 2 2 3 3 3 4 4 3 3 3 2 2 2 3 3 3
2 4 5 4 4 3 1 4 3 2 1 1 2 2 3 4 4 5 5 5 6 7 7 6 5 5 5 5 4 4 4 3 2 3 3 2 2 3 4 4 4 4 4 3 2 2 3 2 3
3 2 2 3 1 0 3 2 3 2 3 3 2 3 3 3 4 4 5 5 5 6 6 6 5 5 5 5 4 4 4 4 4 4 3 3 3 3 4 4 4 4 4 4 4 2 3 3 3
2 3 3 3 2 2 3 3 3 2 1 1 2 2 1 2 4 5 5 5 5 5 5 6 5 5 5 5 4 4 4 4 4 4 5 5 5 5 5 4 4 4 5 4 4 3 3 3 3
2 2 2 2 3 3 3 5 3 4 2 1 1 1 1 2 2 3 4 4 4 5 5 5 6 6 6 5 5 5 4 4 4 4 4 4 5 5 5 5 5 5 5 5 4 4 4 4 4
1 2 3 3 2 2 2 5 2 1 1 1 1 2 2 2 2 2 3 4 4 5 5 5 5 6 6 5 5 5 5 4 5 4 5 4 5 4 4 5 5 5 5 5 5 5 5 5 5
Wind_Direction
327 324 26 53 53 50 262 257 229 288 47 14 91 94 101 96 118 143 118 132 132 144 153 155 155 153 150 147 145 143 142 140 135 132 128 125 120 116 114 113 110 109 107 104 102 100 95 93 91
317 325 48 59 87 110 271 271 239 247 178 129 76 89 88 75 83 114 118 141 138 143 152 156 155 153 152 151 150 149 146 143 140 138 133 130 126 123 121 119 115 114 112 111 109 106 101 98 94
316 51 77 78 133 188 235 276 200 342 359 62 63 65 105 136 137 149 151 142 135 140 147 151 154 155 155 155 154 154 151 148 146 144 140 136 133 129 128 126 123 120 117 117 117 115 111 106 99
15 39 59 88 219 224 217 244 244 34 358 25 87 69 71 124 169 150 139 138 135 140 145 150 152 155 157 158 158 157 155 156 153 151 147 143 140 138 136 134 132 129 127 126 125 124 122 117 107
53 76 73 249 240 249 249 249 202 98 171 17 84 98 43 351 108 126 138 139 139 142 145 153 153 155 156 158 161 160 160 160 157 155 152 150 147 145 144 144 143 141 139 138 138 136 133 128 118
55 79 119 228 250 276 280 267 184 127 223 23 99 105 84 58 107 131 138 141 143 145 145 153 154 155 157 158 158 161 165 165 163 161 159 158 156 155 154 155 157 156 154 152 151 148 147 146 143
116 121 180 210 249 280 286 308 128 122 109 228 129 115 141 155 132 126 129 134 138 143 145 149 154 156 159 160 161 160 160 165 166 164 162 162 161 160 159 162 166 167 166 163 162 158 160 166 175
136 122 183 211 221 260 307 331 308 125 211 328 101 136 184 206 139 110 112 124 134 141 150 154 155 156 158 161 163 162 161 159 160 164 162 162 162 163 166 170 176 178 176 174 175 173 180 192 204
95 108 198 205 202 257 323 349 335 345 74 40 42 168 192 142 123 112 109 111 136 149 157 161 163 163 162 164 169 167 167 167 162 162 164 163 168 172 177 184 187 188 186 186 191 192 198 206 221
111 173 212 215 191 250 320 338 321 1 20 25 22 22 102 126 135 141 149 155 162 171 173 169 170 172 170 174 165 169 173 171 169 167 173 172 175 185 191 197 200 201 200 202 207 209 212 214 228
158 189 215 259 290 316 320 322 333 48 322 245 175 140 128 133 145 157 166 170 173 173 174 178 174 172 175 177 169 175 175 173 180 181 183 181 181 190 196 193 203 209 210 214 222 224 221 216 218
177 222 200 272 321 341 301 309 335 294 255 278 161 148 146 156 171 174 173 171 164 169 182 182 178 176 180 175 179 181 181 183 189 194 192 184 187 192 192 195 200 202 205 208 215 220 225 226 228
240 282 304 299 315 304 308 290 297 290 292 352 88 113 147 163 176 174 154 143 145 173 184 187 188 184 182 178 185 187 190 190 193 196 199 193 193 197 195 198 199 203 204 208 215 221 226 229 233
263 287 296 292 288 299 314 298 300 285 358 31 77 129 165 175 180 145 143 172 183 188 190 186 188 193 184 184 188 189 192 194 191 198 202 199 199 198 195 199 201 205 205 209 214 219 223 229 231
313 343 328 286 248 248 55 308 261 287 19 31 32 121 136 184 167 188 194 193 197 197 190 192 192 191 185 189 193 192 194 194 201 205 206 204 202 201 199 202 207 210 207 207 213 226 225 230 234
45 98 267 272 204 250 125 256 300 332 26 358 348 358 82 349 252 257 229 211 195 185 186 195 192 190 191 190 188 190 190 189 198 204 206 208 206 203 201 205 214 210 203 203 210 215 226 236 237
76 215 233 272 214 38 153 250 297 321 19 344 331 324 349 18 15 1 360 349 286 178 168 173 180 188 199 195 189 187 184 191 196 197 201 210 209 207 206 212 216 206 204 207 214 219 216 233 243
203 218 230 240 301 30 229 266 321 340 15 348 345 357 19 38 359 5 21 26 32 36 47 109 150 186 198 190 179 181 191 202 199 204 213 209 211 208 206 217 219 209 210 215 215 224 224 226 237
179 206 252 263 279 343 238 280 315 338 10 13 13 24 22 354 352 25 26 31 38 36 35 33 36 25 70 125 193 195 209 207 192 195 211 218 217 213 212 226 220 210 214 221 217 222 234 235 218
212 240 265 304 318 275 245 288 317 9 4 17 12 6 11 9 22 31 33 35 40 43 38 35 24 21 26 313 238 210 194 183 179 164 169 224 224 224 221 225 232 229 230 226 218 212 230 238 202
235 218 234 268 333 7 44 322 323 1 23 17 19 15 18 24 27 24 28 29 31 36 34 37 29 24 19 10 30 36 51 43 40 12 299 277 239 235 249 246 235 234 231 243 239 223 220 233 225
243 219 228 245 201 264 176 263 281 293 356 2 359 12 20 19 30 33 36 33 26 19 23 34 34 31 28 35 48 64 66 46 334 327 329 1 9 348 308 286 263 244 237 253 255 245 237 226 235
236 229 219 225 210 250 246 220 273 275 306 328 342 5 16 18 30 38 35 34 25 17 21 25 34 32 30 41 50 63 55 25 8 11 14 12 3 356 340 301 268 267 261 266 265 260 252 238 236
197 72 40 35 124 238 227 204 264 239 227 291 345 1 23 28 35 37 28 29 28 20 22 25 31 30 27 33 40 53 48 32 26 17 8 360 358 354 358 345 318 288 271 271 273 265 257 252 251
108 112 72 13 260 249 218 200 249 260 194 179 173 15 27 37 41 34 27 23 21 20 22 28 33 29 25 32 31 26 29 32 26 6 353 353 353 347 341 346 336 324 301 289 289 282 283 273 274
190 149 157 188 217 271 288 220 245 347 34 78 97 66 42 33 31 31 26 23 19 15 16 22 28 25 23 28 22 20 24 26 11 2 356 342 329 329 338 341 340 338 332 316 290 275 285 288 277
151 181 156 126 55 277 254 281 300 357 36 47 61 51 44 26 22 24 24 26 24 20 16 17 22 22 20 19 19 23 22 23 15 5 359 347 339 338 343 344 339 330 322 323 308 280 281 286 278
118 130 105 123 149 244 268 247 241 239 280 357 22 12 4 17 23 25 26 26 26 23 17 19 21 20 15 12 12 14 15 13 10 12 11 2 354 351 342 341 333 324 323 319 321 309 290 279 277
84 110 126 143 163 174 250 264 235 207 197 204 294 332 350 6 18 23 20 19 21 20 20 21 19 16 13 8 6 8 8 9 10 11 4 357 353 352 352 342 333 328 324 320 314 310 308 290 285
134 151 149 160 221 207 229 270 301 196 118 80 33 8 9 17 24 30 18 16 21 17 13 14 16 15 7 2 4 4 4 7 9 4 356 353 348 347 344 336 337 333 329 327 323 312 306 294 287